| time (UTC) | temp C | wind direction | speed KPH | gust KPH | rain 1hr cm | rain 24hr cm | rain mn cm | humidity % | barometer mb |
| 20260506105359 | 18 | 82 | 1.6 | 12.9 | 0.00 | 0.00 | 0.00 | 42 | 1012.8 |
| 20260506104356 | 18 | 14 | 4.8 | 14.5 | 0.00 | 0.00 | 0.00 | 42 | 1013.1 |
| 20260506103343 | 18 | 53 | 1.6 | 9.7 | 0.00 | 0.00 | 0.00 | 43 | 1013.1 |
| 20260506102337 | 18 | 271 | 3.2 | 8.0 | 0.00 | 0.00 | 0.00 | 45 | 1013.2 |
| 20260506101339 | 18 | 261 | 6.4 | 14.5 | 0.00 | 0.00 | 0.00 | 45 | 1013.2 |
| 20260506100347 | 18 | 227 | 1.6 | 12.9 | 0.00 | 0.00 | 0.00 | 46 | 1013.3 |
| 20260506095345 | 18 | 266 | 4.8 | 9.7 | 0.00 | 0.00 | 0.00 | 46 | 1013.4 |
| 20260506094353 | 18 | 302 | 3.2 | 20.9 | 0.00 | 0.00 | 0.00 | 45 | 1013.6 |
| 20260506093344 | 18 | 99 | 0.0 | 8.0 | 0.00 | 0.00 | 0.00 | 45 | 1013.5 |
| 20260506092339 | 17 | 59 | 1.6 | 6.4 | 0.00 | 0.00 | 0.00 | 47 | 1013.5 |
| 20260506091336 | 17 | 325 | 0.0 | 6.4 | 0.00 | 0.00 | 0.00 | 50 | 1013.5 |
| 20260506090343 | 17 | 76 | 0.0 | 6.4 | 0.00 | 0.00 | 0.00 | 52 | 1013.5 |
| 20260506085344 | 16 | 330 | 6.4 | 8.0 | 0.00 | 0.00 | 0.00 | 54 | 1013.5 |
| 20260506084351 | 16 | 255 | 1.6 | 9.7 | 0.00 | 0.00 | 0.00 | 56 | 1013.4 |
| 20260506083355 | 16 | 270 | 4.8 | 8.0 | 0.00 | 0.00 | 0.00 | 57 | 1013.4 |
| 20260506082337 | 15 | 269 | 4.8 | 8.0 | 0.00 | 0.00 | 0.00 | 59 | 1013.3 |
| 20260506081359 | 15 | 323 | 4.8 | 8.0 | 0.00 | 0.00 | 0.00 | 59 | 1013.4 |
| 20260506080336 | 15 | 295 | 3.2 | 8.0 | 0.00 | 0.00 | 0.00 | 60 | 1013.4 |
| 20260506073339 | 14 | 348 | 1.6 | 6.4 | 0.00 | 0.00 | 0.00 | 66 | 1013.3 |
| 20260506072338 | 14 | 0 | 4.8 | 8.0 | 0.00 | 0.00 | 0.00 | 68 | 1013.2 |
| 20260506071342 | 14 | 50 | 1.6 | 4.8 | 0.00 | 0.00 | 0.00 | 71 | 1013.1 |
| 20260506070347 | 13 | 53 | 0.0 | 4.8 | 0.00 | 0.00 | 0.00 | 74 | 1013.1 |
| 20260506062344 | 11 | 217 | 0.0 | 4.8 | 0.00 | 0.00 | 0.00 | 82 | 1013.0 |
| 20260506061348 | 11 | 206 | 0.0 | 3.2 | 0.00 | 0.00 | 0.00 | 83 | 1013.0 |
| 20260506060353 | 11 | 193 | 0.0 | 1.6 | 0.00 | 0.00 | 0.00 | 83 | 1013.0 |
| 20260506051346 | 10 | 193 | 0.0 | 1.6 | 0.00 | 0.00 | 0.00 | 84 | 1012.7 |
| 20260506050351 | 10 | 194 | 0.0 | 1.6 | 0.00 | 0.00 | 0.00 | 84 | 1012.7 |
| 20260506044335 | 11 | 191 | 0.0 | 0.0 | 0.00 | 0.00 | 0.00 | 84 | 1012.5 |
| 20260506043337 | 11 | 191 | 0.0 | 0.0 | 0.00 | 0.00 | 0.00 | 84 | 1012.4 |
| 20260506042356 | 11 | 191 | 0.0 | 0.0 | 0.00 | 0.00 | 0.00 | 84 | 1012.4 |
| 20260506041356 | 11 | 192 | 0.0 | 0.0 | 0.00 | 0.00 | 0.00 | 83 | 1012.3 |
| 20260506040343 | 11 | 192 | 0.0 | 0.0 | 0.00 | 0.00 | 0.00 | 83 | 1012.3 |
| 20260506035340 | 11 | 192 | 0.0 | 0.0 | 0.00 | 0.00 | 0.00 | 83 | 1012.2 |
| 20260506034340 | 11 | 192 | 0.0 | 1.6 | 0.00 | 0.00 | 0.00 | 83 | 1012.2 |
| 20260506033347 | 11 | 192 | 0.0 | 0.0 | 0.00 | 0.00 | 0.00 | 83 | 1012.1 |
| 20260506032341 | 11 | 192 | 0.0 | 1.6 | 0.00 | 0.00 | 0.00 | 82 | 1012.1 |
| 20260506031348 | 11 | 192 | 0.0 | 0.0 | 0.00 | 0.00 | 0.00 | 82 | 1012.1 |
| 20260506030354 | 11 | 192 | 0.0 | 4.8 | 0.00 | 0.00 | 0.00 | 82 | 1012.1 |
| 20260506025355 | 11 | 262 | 0.0 | 3.2 | 0.00 | 0.00 | 0.00 | 81 | 1012.1 |
| 20260506024340 | 11 | 265 | 0.0 | 1.6 | 0.00 | 0.00 | 0.00 | 81 | 1012.1 |
| 20260506023349 | 11 | 265 | 0.0 | 1.6 | 0.00 | 0.00 | 0.00 | 81 | 1012.1 |
| 20260506022351 | 11 | 264 | 0.0 | 6.4 | 0.00 | 0.00 | 0.00 | 80 | 1012.1 |
| 20260506021355 | 11 | 48 | 0.0 | 3.2 | 0.00 | 0.00 | 0.00 | 80 | 1011.9 |
| 20260506020355 | 12 | 48 | 3.2 | 4.8 | 0.00 | 0.00 | 0.00 | 80 | 1011.8 |
| 20260506015353 | 12 | 48 | 0.0 | 4.8 | 0.00 | 0.00 | 0.00 | 80 | 1011.8 |
| 20260506014338 | 11 | 48 | 0.0 | 0.0 | 0.00 | 0.00 | 0.00 | 79 | 1011.9 |
| 20260506013358 | 11 | 49 | 0.0 | 4.8 | 0.00 | 0.00 | 0.00 | 79 | 1011.8 |
| 20260506012356 | 12 | 49 | 3.2 | 4.8 | 0.00 | 0.00 | 0.00 | 79 | 1011.9 |
| 20260506011358 | 12 | 42 | 0.0 | 4.8 | 0.00 | 0.00 | 0.00 | 78 | 1011.9 |
| 20260506010335 | 12 | 39 | 0.0 | 3.2 | 0.00 | 0.00 | 0.00 | 78 | 1011.8 |
| 20260506005356 | 12 | 39 | 0.0 | 3.2 | 0.00 | 0.00 | 0.00 | 77 | 1011.9 |
| 20260506004358 | 12 | 39 | 0.0 | 3.2 | 0.00 | 0.03 | 0.00 | 77 | 1012.0 |
| 20260506003339 | 12 | 40 | 1.6 | 6.4 | 0.00 | 0.03 | 0.00 | 77 | 1012.0 |
| 20260506002339 | 13 | 21 | 0.0 | 0.0 | 0.00 | 0.03 | 0.00 | 77 | 1012.0 |
| 20260506001344 | 13 | 20 | 0.0 | 4.8 | 0.00 | 0.03 | 0.00 | 76 | 1012.0 |
| 20260506000344 | 13 | 20 | 3.2 | 6.4 | 0.00 | 0.03 | 0.00 | 76 | 1012.0 |
| 20260505235353 | 13 | 14 | 1.6 | 4.8 | 0.00 | 0.03 | 0.00 | 75 | 1012.1 |
| 20260505234351 | 13 | 14 | 3.2 | 6.4 | 0.00 | 0.03 | 0.00 | 75 | 1012.2 |
| 20260505233338 | 13 | 18 | 0.0 | 6.4 | 0.00 | 0.03 | 0.00 | 74 | 1012.2 |
| 20260505232355 | 13 | 17 | 3.2 | 9.7 | 0.00 | 0.03 | 0.00 | 74 | 1012.1 |
| 20260505231357 | 13 | 56 | 4.8 | 9.7 | 0.00 | 0.03 | 0.00 | 74 | 1011.8 |
| 20260505230338 | 13 | 20 | 4.8 | 9.7 | 0.00 | 0.03 | 0.00 | 74 | 1012.0 |
| 20260505225337 | 13 | 5 | 4.8 | 6.4 | 0.00 | 0.03 | 0.00 | 75 | 1012.1 |
| 20260505224357 | 13 | 54 | 0.0 | 6.4 | 0.00 | 0.03 | 0.00 | 75 | 1012.2 |
| 20260505223356 | 13 | 56 | 1.6 | 4.8 | 0.00 | 0.03 | 0.00 | 75 | 1012.1 |
| 20260505222357 | 13 | 58 | 0.0 | 3.2 | 0.00 | 0.03 | 0.00 | 75 | 1012.4 |
| 20260505221338 | 14 | 59 | 0.0 | 6.4 | 0.00 | 0.03 | 0.00 | 75 | 1012.5 |
| 20260505220343 | 14 | 79 | 4.8 | 8.0 | 0.00 | 0.03 | 0.00 | 76 | 1012.6 |
| 20260505215343 | 14 | 329 | 3.2 | 6.4 | 0.00 | 0.03 | 0.00 | 75 | 1012.8 |
| 20260505214348 | 14 | 319 | 3.2 | 6.4 | 0.00 | 0.03 | 0.00 | 74 | 1012.8 |
| 20260505212357 | 14 | 294 | 1.6 | 6.4 | 0.00 | 0.03 | 0.00 | 74 | 1012.8 |
| 20260505211338 | 14 | 199 | 0.0 | 0.0 | 0.00 | 0.03 | 0.00 | 74 | 1012.5 |
| 20260505210341 | 14 | 199 | 0.0 | 0.0 | 0.00 | 0.03 | 0.00 | 74 | 1012.3 |
| 20260505205357 | 14 | 199 | 1.6 | 4.8 | 0.00 | 0.03 | 0.00 | 75 | 1012.3 |
| 20260505204336 | 14 | 262 | 0.0 | 1.6 | 0.00 | 0.10 | 0.00 | 75 | 1012.1 |
| 20260505203343 | 14 | 262 | 0.0 | 6.4 | 0.00 | 0.10 | 0.00 | 75 | 1012.1 |
| 20260505202340 | 14 | 264 | 6.4 | 8.0 | 0.00 | 0.10 | 0.00 | 74 | 1012.1 |
| 20260505201346 | 14 | 254 | 6.4 | 8.0 | 0.00 | 0.10 | 0.00 | 73 | 1012.0 |
| 20260505200340 | 14 | 78 | 0.0 | 0.0 | 0.00 | 0.10 | 0.00 | 73 | 1011.5 |
| 20260505195342 | 14 | 78 | 0.0 | 0.0 | 0.00 | 0.10 | 0.00 | 74 | 1011.4 |
| 20260505194348 | 14 | 78 | 0.0 | 6.4 | 0.00 | 0.10 | 0.00 | 75 | 1011.4 |
| 20260505193337 | 14 | 73 | 0.0 | 8.0 | 0.00 | 0.10 | 0.00 | 76 | 1011.4 |
| 20260505192356 | 14 | 34 | 0.0 | 6.4 | 0.00 | 0.10 | 0.00 | 76 | 1011.3 |
| 20260505191358 | 14 | 66 | 1.6 | 9.7 | 0.00 | 0.10 | 0.00 | 75 | 1011.4 |
| 20260505190342 | 15 | 15 | 6.4 | 12.9 | 0.00 | 0.10 | 0.00 | 74 | 1011.4 |
| 20260505185344 | 15 | 344 | 6.4 | 11.3 | 0.00 | 0.10 | 0.00 | 72 | 1011.3 |
| 20260505184350 | 15 | 12 | 8.0 | 11.3 | 0.00 | 0.10 | 0.00 | 70 | 1011.2 |
| 20260505183336 | 15 | 356 | 6.4 | 12.9 | 0.00 | 0.10 | 0.00 | 70 | 1010.9 |
| 20260505182357 | 15 | 353 | 8.0 | 14.5 | 0.00 | 0.10 | 0.00 | 67 | 1011.1 |
| 20260505181338 | 15 | 336 | 8.0 | 9.7 | 0.00 | 0.10 | 0.00 | 61 | 1011.3 |
| 20260505180344 | 15 | 74 | 4.8 | 11.3 | 0.00 | 0.10 | 0.00 | 63 | 1011.0 |
| 20260505175357 | 15 | 59 | 8.0 | 14.5 | 0.00 | 0.10 | 0.00 | 61 | 1011.2 |
| 20260505174337 | 15 | 355 | 4.8 | 8.0 | 0.00 | 0.10 | 0.00 | 59 | 1011.4 |
| 20260505173342 | 15 | 342 | 1.6 | 6.4 | 0.00 | 0.10 | 0.00 | 58 | 1011.3 |
| 20260505172340 | 15 | 341 | 6.4 | 9.7 | 0.00 | 0.10 | 0.00 | 58 | 1011.6 |
| 20260505171346 | 16 | 339 | 4.8 | 17.7 | 0.00 | 0.10 | 0.00 | 56 | 1011.7 |
| 20260505170336 | 16 | 303 | 6.4 | 9.7 | 0.00 | 0.10 | 0.00 | 53 | 1011.8 |
| 20260505165357 | 16 | 10 | 6.4 | 9.7 | 0.00 | 0.10 | 0.00 | 54 | 1011.7 |
| 20260505164357 | 16 | 0 | 4.8 | 11.3 | 0.00 | 0.10 | 0.00 | 54 | 1011.5 |
| 20260505163336 | 16 | 348 | 6.4 | 27.4 | 0.00 | 0.10 | 0.00 | 54 | 1011.6 |
| 20260505162335 | 18 | 319 | 12.9 | 20.9 | 0.00 | 0.10 | 0.00 | 62 | 1011.7 |
| 20260505161337 | 18 | 219 | 1.6 | 12.9 | 0.00 | 0.10 | 0.00 | 63 | 1011.4 |
| 20260505160340 | 18 | 262 | 6.4 | 19.3 | 0.00 | 0.10 | 0.00 | 62 | 1011.0 |
| 20260505153338 | 18 | 136 | 8.0 | 24.1 | 0.00 | 0.13 | 0.00 | 57 | 1010.7 |
| 20260505152338 | 18 | 114 | 12.9 | 24.1 | 0.00 | 0.13 | 0.00 | 56 | 1010.8 |
| 20260505151343 | 18 | 127 | 12.9 | 24.1 | 0.00 | 0.13 | 0.00 | 54 | 1010.7 |
| 20260505150349 | 18 | 143 | 11.3 | 27.4 | 0.00 | 0.13 | 0.00 | 53 | 1010.5 |
| 20260505140356 | 18 | 121 | 8.0 | 24.1 | 0.00 | 0.13 | 0.00 | 63 | 1011.0 |
| 20260505124355 | 20 | 193 | 4.8 | 22.5 | 0.00 | 0.13 | 0.00 | 51 | 1011.4 |
| 20260505123341 | 20 | 113 | 4.8 | 19.3 | 0.00 | 0.13 | 0.00 | 50 | 1011.4 |
| 20260505122356 | 20 | 156 | 9.7 | 20.9 | 0.00 | 0.13 | 0.00 | 49 | 1011.7 |
| 20260505121343 | 20 | 54 | 0.0 | 6.4 | 0.00 | 0.13 | 0.00 | 54 | 1011.7 |
| 20260505120341 | 20 | 60 | 1.6 | 6.4 | 0.00 | 0.13 | 0.00 | 55 | 1011.9 |
| 20260505115357 | 20 | 351 | 3.2 | 9.7 | 0.00 | 0.13 | 0.00 | 56 | 1012.0 |
| 20260505114340 | 20 | 57 | 1.6 | 8.0 | 0.00 | 0.15 | 0.00 | 56 | 1011.9 |
| 20260505113349 | 19 | 146 | 3.2 | 4.8 | 0.00 | 0.15 | 0.00 | 56 | 1012.1 |
| 20260505112350 | 18 | 152 | 1.6 | 9.7 | 0.00 | 0.15 | 0.00 | 59 | 1012.3 |
| 20260505111338 | 18 | 106 | 4.8 | 8.0 | 0.00 | 0.15 | 0.00 | 61 | 1012.5 |
| 20260505110336 | 17 | 122 | 0.0 | 8.0 | 0.00 | 0.15 | 0.00 | 63 | 1012.5 |